Theta_e
320 321 320 322 328 333 339 339 338 339 339 336 335 335 337 338 342 356 356 354 347 351 356 352 345 343 344 344 345 347 346 344 335 335 335 335 334 334 332 340 343 343 340 333 326 327 326 326 327
319 319 320 325 329 336 338 338 338 338 336 333 335 336 338 348 351 355 356 352 350 353 356 353 344 344 345 347 346 347 346 343 335 337 337 336 333 333 333 337 344 343 337 323 321 325 328 328 332
318 318 323 328 331 334 337 335 337 337 333 333 335 334 337 349 353 354 354 352 351 353 354 354 342 344 346 348 347 347 346 341 338 340 339 337 333 332 334 339 342 342 328 321 321 326 330 329 332
317 318 320 327 332 332 332 333 333 333 333 332 333 334 336 352 353 353 354 351 352 351 352 353 340 342 345 347 347 347 346 343 342 344 341 337 333 332 334 338 340 330 329 320 322 328 331 331 332
316 319 318 320 322 329 329 329 329 329 330 331 330 333 335 349 356 355 353 350 351 350 350 352 339 339 342 345 346 347 346 345 346 345 341 337 333 332 332 331 331 330 326 321 323 327 330 331 331
317 318 318 318 320 321 325 327 328 327 327 328 329 333 335 355 356 356 352 351 349 350 350 350 339 337 339 341 344 346 346 346 347 345 340 334 332 332 330 330 332 329 323 323 324 326 328 331 332
316 317 317 318 319 319 321 323 324 327 328 328 328 330 336 353 357 356 351 350 350 350 350 350 345 341 337 339 339 342 345 346 344 340 335 332 332 331 330 333 332 324 323 324 324 324 325 328 330
317 317 316 317 317 318 320 320 321 322 323 327 327 334 342 355 358 356 351 350 350 349 348 348 345 344 344 343 336 334 335 334 332 330 330 331 330 330 333 333 328 320 321 322 322 321 321 321 321
316 316 316 316 316 317 318 318 320 321 322 324 327 331 344 353 358 356 353 351 350 348 347 346 344 344 343 343 343 335 333 332 329 329 329 333 338 339 342 337 335 322 321 322 322 321 321 320 320
315 316 316 317 317 316 317 317 318 319 321 322 325 336 344 352 357 357 355 353 351 348 347 345 344 343 342 340 342 342 342 340 339 339 342 340 339 341 338 338 331 323 321 322 322 321 321 320 329
315 315 316 315 315 315 315 315 316 317 318 321 324 328 339 343 348 357 356 354 351 349 347 344 345 345 343 341 341 339 338 338 339 339 341 339 339 342 339 337 337 335 332 332 334 335 333 332 334
313 314 314 314 314 314 315 315 315 316 317 319 321 323 323 325 334 344 355 355 352 350 348 345 346 347 346 343 343 339 338 337 338 339 343 340 342 340 337 336 335 337 335 335 337 334 334 334 333
313 313 313 314 314 314 314 314 314 314 315 317 318 319 320 321 324 323 337 353 352 351 349 347 346 348 348 346 345 344 343 342 341 341 343 340 340 339 339 338 337 336 335 335 335 334 334 334 334
314 313 313 313 314 315 314 314 314 314 315 315 316 317 319 321 322 324 330 347 352 350 350 349 346 349 350 349 348 348 347 345 345 344 345 346 344 343 341 341 340 337 336 335 334 334 334 334 333
312 314 316 317 316 316 316 315 315 316 315 315 316 317 318 319 321 323 327 344 352 351 351 350 349 348 350 350 350 350 349 349 348 347 348 349 348 347 347 344 344 342 341 342 340 340 339 339 337
316 317 317 317 317 318 316 317 318 318 317 315 316 317 318 319 322 323 327 342 352 352 351 351 350 349 351 350 350 349 349 349 348 348 349 351 350 349 349 347 346 346 347 346 345 344 344 343 341
318 317 317 317 318 318 317 319 320 319 318 317 317 318 318 320 323 324 330 344 353 352 351 352 351 350 352 353 352 351 351 351 350 349 349 351 350 350 350 349 348 349 349 348 347 346 345 342 341
317 317 317 318 319 318 319 319 320 320 320 320 320 320 319 320 324 324 338 346 351 354 351 351 351 346 336 350 352 351 351 351 349 350 343 348 347 348 350 348 350 350 349 346 345 344 344 345 345
318 318 318 319 319 319 320 321 321 321 321 321 321 321 320 321 324 327 336 344 346 351 351 350 351 351 349 352 352 349 349 351 350 350 349 348 342 348 349 334 349 350 346 346 347 348 348 348 348
317 319 319 319 319 319 320 320 321 321 321 322 322 322 322 322 326 327 327 330 336 344 351 351 346 335 335 343 344 344 344 347 349 349 344 337 345 346 348 348 347 347 347 349 349 349 348 347 347
318 318 319 319 319 319 320 321 321 321 321 321 322 322 323 323 326 328 328 328 327 330 344 353 351 345 345 335 330 328 324 344 347 347 347 345 346 346 347 347 347 348 350 349 349 347 346 344 342
319 318 318 319 319 320 320 320 321 320 320 321 321 323 324 324 326 328 328 328 327 326 330 342 352 346 349 350 342 339 342 347 347 345 344 343 343 344 345 347 348 350 346 343 341 341 339 342 337
319 319 319 320 321 321 320 320 320 320 320 321 321 322 326 327 326 325 325 325 326 325 326 331 337 347 349 350 348 348 347 347 348 343 345 345 348 349 350 349 344 341 337 337 335 335 337 331 333
319 319 319 320 320 321 320 320 320 320 320 321 323 326 327 327 327 327 325 323 323 323 323 329 332 341 345 347 348 349 349 348 351 347 348 347 344 341 339 338 338 337 333 333 332 332 333 332 329
319 321 322 321 320 319 320 320 320 321 321 324 326 327 328 329 329 329 329 328 324 324 327 327 338 342 344 346 346 348 350 350 351 348 347 342 338 335 336 335 334 332 332 331 331 331 330 329 328
320 321 321 321 321 320 320 319 319 322 327 325 326 327 328 329 331 331 331 329 327 325 327 333 336 344 347 349 348 349 350 349 348 346 341 337 333 332 334 333 332 331 330 329 329 326 325 324 325
320 321 321 322 321 321 320 321 321 325 326 326 326 327 329 330 330 331 332 330 329 329 333 338 342 345 347 347 348 348 347 343 340 335 334 331 329 329 334 332 331 330 328 327 325 322 321 321 322
320 322 323 322 323 323 321 321 321 325 324 326 326 327 327 327 328 329 331 332 332 334 337 337 338 340 341 340 339 338 334 332 332 333 332 331 332 330 331 330 330 329 327 324 323 318 320 321 319
323 323 324 326 325 326 325 323 326 325 325 326 326 326 325 325 324 325 326 327 329 331 332 331 330 329 330 330 330 331 331 331 332 332 332 333 333 332 330 330 329 326 324 323 323 321 318 318 319
325 325 326 331 328 327 326 327 328 328 326 326 325 325 325 324 324 323 322 322 323 324 325 327 328 328 328 329 330 331 331 331 332 331 331 331 330 329 328 326 324 323 322 321 322 321 319 318 319
Wind_Speed
6 6 6 8 7 6 12 3 5 6 6 5 9 8 11 11 7 5 3 12 18 23 24 28 29 27 26 26 27 31 31 29 29 27 26 24 23 23 23 22 19 16 14 12 11 11 11 12 12
4 5 7 4 8 13 11 7 9 4 5 9 8 5 9 3 4 3 7 10 20 24 24 26 30 26 24 25 28 33 32 30 30 27 25 23 22 22 22 21 18 14 12 11 11 12 11 11 11
4 7 7 6 12 16 12 8 9 5 6 8 6 7 7 3 2 3 3 16 23 23 24 25 33 28 25 24 28 33 32 31 30 27 25 22 20 21 21 20 17 14 11 11 12 12 10 9 8
8 7 5 11 19 14 16 4 1 5 5 4 6 12 3 2 4 1 8 20 24 24 24 25 34 31 27 27 29 32 32 30 29 26 23 21 19 21 21 19 16 12 10 10 11 11 9 8 7
10 4 11 16 24 21 10 13 8 11 8 8 10 9 11 4 2 4 16 22 24 24 23 23 34 32 30 28 30 31 30 29 28 25 22 20 19 20 19 17 14 11 9 9 9 9 8 7 7
7 6 11 17 21 20 19 14 16 15 15 12 12 10 11 4 4 8 17 22 23 23 22 24 31 32 31 30 29 30 30 29 26 24 22 20 19 19 18 16 13 10 9 8 8 8 8 7 6
14 10 17 20 19 17 17 15 15 15 14 15 9 13 7 4 5 10 17 21 22 23 24 24 25 28 30 30 29 28 28 27 25 23 21 20 20 18 16 14 12 10 9 8 7 7 7 7 7
8 8 17 17 16 21 15 12 16 16 19 13 12 8 3 7 7 13 18 21 22 23 24 25 26 26 25 25 29 29 28 26 24 22 21 20 20 17 15 14 11 10 9 9 8 7 6 7 8
6 8 13 17 15 15 4 12 13 15 11 13 12 7 10 1 9 14 19 21 23 24 24 25 26 26 24 22 24 28 26 24 23 22 21 19 14 13 11 10 12 11 10 8 7 7 7 7 7
12 11 15 9 9 12 14 13 12 14 14 18 15 7 3 5 8 12 19 23 26 28 28 26 26 26 26 24 23 23 21 20 20 19 18 16 14 13 13 12 14 11 11 10 8 8 8 6 7
10 15 9 9 13 14 16 17 15 16 20 17 15 9 4 4 7 13 18 21 26 25 26 28 28 27 27 24 24 24 22 21 21 20 18 19 16 14 15 11 10 10 10 8 7 7 6 7 7
10 12 13 11 10 14 18 17 18 18 22 20 17 9 13 12 10 11 17 21 23 26 26 26 27 27 27 24 24 23 22 22 21 22 21 19 17 15 14 13 11 10 10 9 9 8 8 9 10
15 13 12 14 16 17 18 20 20 23 21 21 22 19 20 19 17 20 20 22 22 25 27 28 28 27 26 25 23 22 22 22 21 21 22 21 19 16 15 14 13 12 11 11 10 10 10 11 11
6 10 13 14 16 15 18 19 18 15 10 20 26 27 24 22 21 21 19 25 25 26 27 27 29 28 26 26 23 22 21 20 19 19 19 20 18 17 15 14 13 13 12 12 11 11 10 12 11
9 12 14 16 18 14 8 16 24 25 23 22 23 21 22 22 26 21 20 26 28 28 25 28 27 27 27 26 24 22 21 19 19 19 18 18 18 16 15 14 13 13 12 12 11 12 12 12 13
13 10 11 6 7 13 7 13 15 13 18 22 25 21 21 23 24 23 20 24 26 22 24 28 28 27 26 25 23 21 19 19 18 18 16 18 17 17 15 15 14 13 12 12 12 13 13 15 15
10 10 8 5 3 3 11 13 10 5 10 15 19 19 18 20 21 21 19 22 24 24 22 22 23 22 20 19 22 22 18 20 19 19 16 17 18 19 18 15 15 15 14 14 14 14 14 15 15
13 12 9 8 7 5 8 17 17 13 11 14 16 16 16 18 18 16 17 20 22 20 24 24 23 18 9 22 22 17 19 18 18 21 21 26 13 19 21 15 16 16 15 14 14 12 12 14 14
4 8 10 11 8 10 14 12 14 13 9 13 14 14 14 16 14 10 9 13 19 19 20 22 21 24 22 26 18 12 16 16 21 20 15 13 22 18 20 19 20 17 15 12 10 11 12 13 13
11 11 12 12 6 5 9 14 14 10 8 6 9 10 11 15 17 8 9 13 14 19 32 26 23 30 24 18 14 7 5 15 17 16 22 4 24 16 17 15 16 14 11 11 12 11 12 12 10
12 13 12 13 11 13 15 16 14 7 6 3 6 5 5 11 17 13 7 10 15 15 19 27 30 29 26 28 26 19 12 16 26 25 17 18 27 18 16 15 14 11 12 11 10 9 8 10 10
13 12 13 14 13 11 5 11 4 1 6 5 0 4 5 5 13 14 12 14 15 29 22 19 22 32 27 20 22 30 28 29 26 21 17 19 18 14 13 12 11 11 11 9 8 8 8 10 12
13 8 10 13 13 13 15 9 11 2 11 7 3 3 7 7 5 11 13 18 27 24 23 20 20 22 25 26 25 24 28 20 11 15 16 15 11 11 12 13 13 10 7 8 7 7 8 9 12
3 7 9 9 11 13 16 15 12 10 6 3 1 5 7 8 9 9 7 11 17 17 18 18 24 24 24 23 24 26 21 18 17 17 17 15 14 14 14 12 9 9 9 9 8 7 8 8 11
9 9 7 10 10 11 7 8 12 6 3 2 5 6 7 7 7 9 8 6 6 10 12 14 18 19 20 21 22 22 19 21 21 23 22 20 18 15 13 13 12 12 11 10 8 8 8 9 12
16 14 10 9 10 10 8 7 5 5 3 1 2 4 5 8 9 10 10 9 8 5 5 10 13 14 14 18 17 17 18 18 18 18 19 18 16 15 16 16 14 13 12 11 10 9 8 10 12
16 9 14 15 9 9 6 10 6 8 7 4 3 4 7 9 10 12 11 10 7 3 1 4 7 10 15 15 18 19 19 17 17 17 18 16 14 14 16 16 15 15 14 13 11 10 11 12 12
15 6 10 10 17 17 10 8 8 11 8 4 3 4 6 7 10 11 12 14 13 11 11 11 12 13 14 15 15 16 17 17 16 15 16 14 14 14 15 16 16 16 16 15 13 12 13 13 13
8 11 11 9 6 10 11 2 11 7 2 3 3 5 5 7 7 9 11 13 14 16 15 14 14 13 13 13 13 12 11 11 12 12 11 11 12 13 14 15 16 17 17 17 17 16 16 17 16
5 9 7 8 13 8 9 7 5 4 2 2 4 4 5 4 5 7 8 10 11 11 12 10 9 8 7 7 8 9 9 7 7 7 7 7 9 11 14 16 19 19 20 20 20 20 20 21 22
Wind_Direction
289 272 269 261 251 231 252 217 305 203 184 23 314 300 317 301 293 0 29 164 154 158 161 166 177 180 182 184 187 182 179 175 172 171 169 166 163 163 162 162 162 161 161 162 160 153 147 143 140
248 229 226 266 251 237 234 210 222 205 27 320 302 304 290 335 13 73 132 156 158 158 161 164 177 181 184 183 184 180 178 177 176 174 173 170 168 167 168 170 168 169 169 167 163 159 156 150 146
217 213 242 228 241 244 252 156 233 251 314 331 306 333 322 360 65 30 77 159 158 161 163 166 175 180 183 181 182 180 179 179 178 177 177 176 173 172 173 175 176 179 176 173 168 166 162 157 156
185 191 237 240 240 234 258 175 163 246 262 296 316 302 276 44 323 349 156 161 162 163 165 176 175 180 181 183 181 183 182 182 181 181 182 181 180 178 177 179 183 183 181 179 174 172 169 167 168
202 234 236 229 243 250 210 269 285 274 281 274 313 291 289 145 285 171 164 167 168 166 168 172 178 181 184 184 185 185 186 187 186 186 188 187 185 184 183 182 187 186 188 184 180 180 181 184 188
199 251 232 236 240 238 249 251 263 261 270 274 279 288 292 106 189 167 170 172 171 168 168 172 180 183 187 189 188 189 189 190 191 191 192 191 190 187 188 188 192 191 192 192 188 190 194 202 209
247 220 242 250 255 249 232 230 257 260 259 261 276 288 294 200 182 171 172 174 174 173 170 171 177 185 188 192 191 190 190 192 193 197 197 195 190 189 193 198 201 197 198 202 202 203 204 212 224
249 259 254 242 253 255 246 228 247 252 260 261 267 254 227 30 175 173 175 177 180 178 177 175 176 181 186 190 193 192 192 194 197 198 196 192 189 193 199 207 213 207 207 209 211 214 218 226 236
243 243 243 241 242 254 217 252 253 266 265 248 258 295 345 286 183 183 177 181 184 185 184 183 180 181 184 186 193 194 195 195 194 191 192 191 188 199 211 209 221 221 219 222 221 224 230 239 258
215 231 246 260 275 259 269 257 265 269 253 241 237 167 85 126 193 209 195 187 189 188 188 188 186 183 184 186 190 190 193 191 190 190 194 191 195 197 202 210 224 223 226 230 234 236 244 261 250
214 248 255 232 247 258 267 265 259 253 254 244 245 198 197 209 211 224 224 205 197 192 192 191 188 186 188 187 187 189 191 192 192 192 195 195 196 201 201 209 215 217 233 229 243 239 241 237 246
241 228 253 252 256 253 259 266 263 255 257 268 254 290 285 264 242 236 231 221 205 197 197 196 193 191 192 190 190 190 192 192 194 195 194 195 197 201 203 209 213 215 218 220 223 230 233 239 249
232 249 249 252 257 255 265 266 268 263 263 268 271 274 268 268 260 260 240 232 214 206 202 199 196 197 194 194 196 196 197 198 199 198 199 197 199 204 207 210 211 216 220 225 230 234 238 245 252
171 239 252 248 251 253 253 264 260 260 251 246 251 250 251 256 256 255 242 225 218 212 206 202 199 199 197 199 199 200 200 201 204 204 206 204 204 205 207 210 216 222 224 229 235 241 244 256 255
228 248 242 234 240 239 263 254 251 253 248 244 252 254 252 252 255 256 260 222 220 214 207 201 201 202 203 203 203 202 204 205 209 210 209 210 212 210 209 216 219 224 226 229 234 242 250 253 259
221 229 243 148 217 217 209 284 285 256 227 234 246 251 249 248 249 250 254 221 219 218 210 201 196 202 205 207 208 210 208 205 209 216 211 212 213 217 217 223 223 222 227 234 242 245 248 253 256
203 239 198 236 69 151 211 286 307 297 248 231 236 246 242 245 242 249 243 218 211 213 208 208 197 196 208 221 212 208 211 206 208 212 208 213 216 214 218 223 230 225 226 235 241 249 251 257 258
215 214 215 234 142 216 246 266 278 276 243 234 236 244 237 235 238 250 222 212 213 210 204 200 198 181 200 240 226 222 218 210 212 212 206 219 218 217 214 206 231 224 234 239 242 236 247 260 268
257 250 249 259 261 273 275 274 287 287 256 243 235 243 228 227 226 204 192 194 196 203 214 197 180 188 192 211 197 227 247 226 213 217 211 224 217 219 218 186 225 222 220 225 236 242 246 255 260
239 251 253 267 270 259 265 292 283 267 266 269 232 223 221 214 215 206 178 176 197 210 210 196 199 204 211 189 179 177 225 249 237 229 219 247 256 213 213 207 211 214 212 221 225 233 250 258 260
230 248 258 267 268 280 260 268 252 215 233 259 276 261 216 215 223 223 220 186 179 266 226 211 202 202 203 202 210 216 266 250 223 217 218 211 209 209 205 208 208 214 225 230 219 210 224 251 253
243 230 248 268 266 260 182 273 145 232 278 208 51 22 8 259 218 240 249 225 189 207 226 233 223 211 208 216 205 185 195 201 216 216 207 198 200 209 213 215 218 206 211 219 216 215 229 233 263
254 254 257 254 253 259 244 244 266 163 240 187 173 6 10 353 302 276 266 245 228 224 216 208 217 213 209 204 203 198 211 218 202 194 195 182 188 200 198 195 191 192 196 207 215 207 223 244 261
176 240 230 252 251 241 242 243 250 224 222 154 124 7 11 353 331 321 266 255 260 257 249 222 210 207 199 201 202 209 208 203 183 187 186 180 175 178 183 179 175 185 202 205 209 214 228 250 269
213 234 227 217 219 242 224 228 245 69 117 328 333 348 7 0 9 353 348 317 247 239 239 235 221 199 192 197 198 198 195 191 190 175 179 172 178 179 179 183 186 195 202 208 209 216 235 249 264
210 226 245 235 238 232 144 228 228 101 119 94 22 6 8 19 21 16 14 1 340 288 254 242 224 209 191 192 185 182 186 188 191 174 173 175 177 184 187 188 194 199 203 207 211 228 245 262 260
220 226 247 277 269 286 259 168 203 169 165 159 99 66 44 38 31 29 35 41 46 60 229 218 203 190 186 176 169 176 176 173 173 167 169 175 181 189 189 193 198 204 208 217 224 252 250 256 261
242 247 207 227 254 245 233 226 272 172 178 152 124 77 65 59 56 53 47 47 59 77 94 107 122 128 137 142 143 149 156 158 168 173 180 183 190 192 195 201 206 212 219 226 230 249 246 242 250
183 224 234 293 271 252 260 281 27 62 114 167 125 100 83 74 67 65 64 62 59 79 87 92 99 109 123 131 138 148 153 159 169 180 188 192 197 204 211 218 223 228 234 234 233 240 248 244 244
271 278 275 222 246 261 287 271 89 85 85 191 155 138 109 86 62 63 67 62 68 77 79 76 70 79 91 113 126 135 145 156 167 181 195 212 226 234 239 239 240 242 243 245 244 246 251 247 246